Hourly Data Report for August 13, 2003

SHERBROOKE A
QUEBEC

45°26'00.000" N
71°41'00.000" W
241.40 m
7028124
71610
YSC

Download Data

Hourly Data (August 2003)
Hourly Data Report for August 13, 2003
TIME
LST
Temp Definition
°C
Dew Point Definition
°C
Rel Hum Definition
%
Precip. Amount Definition
mm

Wind Dir Definition
10's deg

Wind Spd Definition
km/h
Visibility Definition
km
Stn Press Definition
kPa
Hmdx Definition


Wind Chill Definition


Weather Definition


00:00 18.6 17.2 92     0 15.0 99.50      
01:00 18.2 17.1 93   10 4 15.0 99.49      
02:00 17.7 16.9 95   36 4 4.0 99.47      
03:00 17.7 16.9 95   9 4 6.4 99.46      
04:00 17.7 16.8 94     0 6.4 99.47      
05:00 17.4 16.5 94   12 4 5.6 99.48      
06:00 18.3 17.4 94     0 8.0 99.55      
07:00 20.1 18.8 92     0 24.1 99.55 27   Mainly Clear
08:00 22.6 20.0 85   26 7 24.1 99.58 30   Mainly Clear
09:00 24.5 20.3 77   27 11 24.1 99.60 32   Mainly Clear
10:00 26.1 19.0 65   27 11 24.1 99.60 33   Mainly Clear
11:00 26.6 18.2 60   28 9 24.1 99.55 33   Mainly Clear
12:00 27.1 18.5 59   27 9 24.1 99.50 33   Mainly Clear
13:00 27.5 17.9 56   28 17 24.1 99.44 33   Mainly Clear
14:00 27.3 17.1 54   30 19 24.1 99.45 33   Mainly Clear
15:00 27.2 15.6 49   27 20 24.1 99.43 32   Mainly Clear
16:00 26.8 15.8 51   29 20 24.1 99.41 31   Mainly Clear
17:00 26.2 16.5 55   27 15 15.0 99.41 31    
18:00 25.2 17.3 62   25 9 15.0 99.40 31    
19:00 22.7 17.0 70   23 7 15.0 99.42 28    
20:00 19.1 16.7 86   25 6 15.0 99.47      
21:00 19.8 17.0 84   23 6 15.0 99.45      
22:00 17.6 16.0 90   13 4 15.0 99.46      
23:00 18.5 17.0 91   23 9 15.0 99.47      

Notes on Data Quality.

Legend

  • E = Estimated
  • M = Missing
  • NA = Not Available*
  • [empty] = Indicates an unobserved value
Date modified: